Tracking 35274 objects as of 12-Sep-2026
HD Live streaming from Space Station
objects crossing your sky now

SL-12 DEB


SL-12 DEB is no longer on orbit


NORAD ID: 29440
Int'l Code: 1989-039CP
Launch date: May 31, 1989
Source: Commonwealth of Independent States (former USSR) (CIS)
Launch site: TYURATAM MISSILE AND SPACE COMPLEX (TTMTR)
Decay date: 2009-05-15

Note: This is SATELLITE DEBRIS
Your satellite tracking list
Your tracking list is empty




NASA's NSSDC Master Catalog

Two Line Element Set (TLE):
1 29440U 89039CP  09135.16901811  .10567052  17259+0  65933-1 0  9999
2 29440 064.7887 355.5428 0155779 281.7879 076.8089 15.68002513 63940
Source of the keplerian elements: AFSPC